Regional Weather Roundup
Issued by NWS

Home | Current Version | Previous Version | Graphics & Text | Print | Product List | Glossary On
Versions: 1 2 3 4 5 6 7 8 9 10 11 12 13 14 15 16 17 18 19 20 21 22 23 24 25 26 27 28 29 30 31 32 33 34 35 36 37 38 39 40 41 42 43 44 45 46 47 48 49 50
000
ASUS43 KIND 241109
RWRIN

WEATHER ROUNDUP FOR INDIANA
NATIONAL WEATHER SERVICE INDIANAPOLIS IN
700 AM EDT THU JUL 24 2014

NOTE: "FAIR" INDICATES FEW OR NO CLOUDS BELOW 12,000 FEET WITH NO
SIGNIFICANT WEATHER AND/OR OBSTRUCTIONS TO VISIBILITY.

* - STATION DOES NOT REPORT WEATHER SUCH AS PRECIPITATION OR FOG.

+ - STATION NOT QUALITY CONTROLLED BY THE NATIONAL WEATHER SERVICE.
    USE DATA WITH CAUTION...ESPECIALLY DEWPOINT AND RELATIVE
    HUMIDITY OBSERVATIONS.

INZ001>003-010>013-019-020-241200-
NORTHWEST INDIANA

CITY           SKY/WX    TMP DP  RH WIND       PRES   REMARKS
GARY /AIRPORT/ PTCLDY    64  55  72 MISG      30.14R
KNOX *+        CLEAR     51  50  93 N3        30.12R
LA PORTE +     PTCLDY    56  53  89 N8        30.14R
MICHIGAN CITY+ PTCLDY    52  52 100 CALM      30.14R FOG
MONTICELLO +   MOCLDY    56  55  96 CALM      30.10R
RENSSELAER +   CLEAR     54  54 100 N3        30.12R
VALPARAISO     CLEAR     55  51  86 VRB3      30.14R

$$

LMZ046-743>745-241200-
SOUTHERN LAKE MICHIGAN

STATION/POSITION TIME  TEMP WIND        PRES
                       AIR  DIR/SP/G
                 (UTC) (F)  (DEG/KT/KT) (MB)
MICHIGAN CITY    1100   61   30/ 13/ 15   N/A

$$

INZ004-005-014>016-021>024-241200-
NORTH CENTRAL INDIANA

CITY           SKY/WX    TMP DP  RH WIND       PRES   REMARKS
ELKHART        PTCLDY    57  55  94 CALM      30.14
GOSHEN         MOCLDY    59  56  89 NE7       30.12R
LOGANSPORT +   CLOUDY    55  54  94 N6        30.11R
PERU/GRISSOM   PTCLDY    56  56 100 N5        30.10R
ROCHESTER +    CLOUDY    59  55  88 N3        30.11S
SOUTH BEND     PTCLDY    57  53  86 N6        30.14R
WARSAW +       MOCLDY    54  54 100 N3        30.12R

$$

INZ006>009-017-018-025>027-241200-
NORTHEAST INDIANA

CITY           SKY/WX    TMP DP  RH WIND       PRES   REMARKS
ANGOLA *+      CLOUDY    61  52  72 N3        30.12R
AUBURN +       CLOUDY    61  52  72 NE6       30.11S
FORT WAYNE     MOCLDY    62  54  74 NE9       30.11R
HUNTINGTON +   MOCLDY    59  58  95 CALM      30.10R

$$

INZ028-029-035-036-043>045-051>053-241200-
WEST CENTRAL INDIANA

CITY           SKY/WX    TMP DP  RH WIND       PRES   REMARKS
GREENCASTLE +  MOCLDY    54  52  94 N3        30.09R
LAFAYETTE      MOCLDY    56  54  93 NE5       30.10R
TERRE HAUTE    CLEAR     55  52  89 N6        30.08R

$$

INZ030>032-037>040-046>048-054>057-064-065-241200-
CENTRAL INDIANA

CITY           SKY/WX    TMP DP  RH WIND       PRES   REMARKS
CP ATTERBURY + CLEAR     59  57  94 N3        30.06S FOG
COLUMBUS       PTCLDY    59  59 100 N5        30.05
INDIANAPOLIS   PTCLDY    58  56  93 N8        30.06R
-EAGLE CREEK   CLEAR     57  54  89 N5        30.07R
KOKOMO *+      CLEAR     55  54  94 NE5       30.10R
MARION +       PTCLDY    57  56  97 NE5       30.10R FOG
MT COMFORT *+  CLEAR     55 N/A N/A N5        30.08R
SHELBYVILLE    CLEAR     61  57  87 N5        30.06R FOG
ZIONSVILLE +   CLEAR     55  52  89 N3        30.09R FOG

$$

INZ033-034-041-042-049-050-058-059-241200-
EAST CENTRAL INDIANA

CITY           SKY/WX    TMP DP  RH WIND       PRES   REMARKS
MUNCIE         MOCLDY    59  57  93 NE5       30.09R FOG

$$

INZ060-061-067>069-081>083-085>088-241200-
SOUTHWEST INDIANA

CITY           SKY/WX    TMP DP  RH WIND       PRES   REMARKS
EVANSVILLE     MOCLDY    60  53  77 N7        30.03S
HUNTINGBURG *+ MOCLDY    61  55  82 N6        30.03R
WASHINGTON +   MOCLDY    56  56  98 N6        30.04R

$$

INZ062-063-066-070>080-084-089>092-241200-
SOUTH CENTRAL AND SOUTHEAST INDIANA

CITY           SKY/WX    TMP DP  RH WIND       PRES   REMARKS
BEDFORD +      CLEAR     61  57  88 N7        30.04
BLOOMINGTON    CLEAR     59  56  89 N9        30.05S
NORTH VERNON + CLEAR     63  63 100 N7        30.04

$$



USA.gov is the U.S. government's official web portal to all federal, state and local government web resources and services.